world map with RNS marked

RNS - Airport

This information may not be accurate or current and is not valid for navigation or flight planning. No warranty of fitness for any purpose is made or implied.

flag of Bretagneflag of France

Donate via PayPal

Additional information is available on the NEW Great Circle Mapper

Location
City:  Rennes, Bretagne, France
Name:St-Jacques
ICAO / IATA:LFRN / RNS

Details
Type:Airport (Aerodrome, Airfield)
Use:Public/Civil
Latitude:48°04'19"N (48.071944)
Longitude:1°43'56"W (-1.732221)
Elevation:124 ft (38 m)
Runways:4
Longest:6890 × 148 ft (2100 × 45 m)

Time
Timezone:UTC+1 (DST+4)
Local Time:

Weather
METAR:LFRN  221030Z AUTO 04009KT 360V080 CAVOK 19/07 Q1029 NOSIG
TAF:LFRN  220500Z 2206/2306 05005KT CAVOK BECMG 2208/2210 06010KT

Related Locations
Nearby:
Farthest:CHT: 12045 mi / 19385 km
Waitangi [Tuuta], CIT, NZ

Find:

   beyond  
but within

Other Information
Maps:
Links:
Sources:

  


 


Great Circle Mapper   Great Circle Mapper
Great Circle Mapper FAQ   Great Circle Mapper FAQ
  Karl's Home Page
KLSē   KLSē Home
   GC on Facebook
Airlines of the World   Airlines of the World
Donate via PayPal


Copyright © 2004-2018, Karl L. Swartz. All rights reserved.
All trademarks mentioned herein belong to their respective owners.

Please see credits for attribution and copyright information.

Karl Swartz <karl@kls2.com>
  Powered by FreeBSD
Valid HTML 4.01!
Labeled with ICRA
hCard Microformat
Geo Microformat